Weather Roundup
Issued by NWS Chicago, IL

Home | Current Version | Previous Version | Text Only | Print | Product List | Glossary Off
Versions: 1 2 3 4 5 6 7 8 9 10 11 12 13 14 15 16 17 18 19 20 21 22 23 24 25 26 27 28 29 30 31 32 33 34 35 36 37 38 39 40 41 42 43 44 45 46 47 48 49 50

000
NZUS59 KLOT 230709
HRRLOT

CHICAGO AREA WEATHER ROUNDUP
NATIONAL WEATHER SERVICE CHICAGO/ROMEOVILLE IL
200 AM CDT TUE MAY 23 2017

NOTE: "FAIR" INDICATES FEW OR NO CLOUDS BELOW 12,000 FEET WITH NO
SIGNIFICANT WEATHER AND/OR OBSTRUCTIONS TO VISIBILITY.

* THESE STATIONS ARE NOT UNDER NWS QUALITY CONTROL. THEY ALSO MAY NOT
  REPORT WEATHER SUCH AS PRECIPITATION OR FOG.

ILZ005-006-012>014-019>023-230800-
NORTHEAST ILLINOIS

CITY           SKY/WX    TMP DP  RH WIND       PRES   REMARKS
OHARE          CLOUDY    60  53  77 SW10      29.85F
MIDWAY         CLOUDY    61  54  77 SW10      29.86F
AURORA         CLOUDY    59  55  87 S9        29.86F
LANSING*       CLOUDY    58  55  89 S9        29.88F
WAUKEGAN       CLOUDY    59  54  83 SW10      29.83F
DUPAGE AIRPORT CLOUDY    59  55  87 SW10      29.85F
WHEELING       CLOUDY    60  55  83 SW9       29.86F
KANKAKEE*      DRIZZLE   58  55  87 CALM      29.91F
MORRIS*        CLOUDY    59  54  84 SW6       29.86F
LEWIS AIRPORT* CLOUDY    58  56  93 SW6       29.87F
NORTHERLY ISL    N/A     61  51  70 S12         N/A
$$

WIZ051-052-058>065-066-070>072-230800-
SOUTHEAST WISCONSIN

CITY           SKY/WX    TMP DP  RH WIND       PRES   REMARKS
MILWAUKEE      CLOUDY    59  54  83 S8        29.82F
KENOSHA*       MOCLDY    58  53  84 SW12      29.83F
RACINE*        MOCLDY    58  53  84 SW7       29.84F
WAUKESHA       CLOUDY    54  52  94 SW6       29.82F
WEST BEND      CLOUDY    54  54 100 S3        29.81F
$$

INZ001>003-010>013-019-020-230800-
NORTHWEST INDIANA

CITY           SKY/WX    TMP DP  RH WIND       PRES   REMARKS
GARY*          CLOUDY    61  53  73 SW7       29.89F
MICHIGAN CITY* NOT AVBL
RENSSELAER*    NOT AVBL
VALPARAISO     CLOUDY    61  53  75 SW9       29.90F
$$

LMZ740>746-230800-
SOUTHERN LAKE MICHIGAN

STATION/POSITION TIME  SKY/WX   TEMP WIND        PRES    VSBY
                                AIR  DIR/SP/G
                 (UTC)          (F)  (DEG/KT/KT) (MB)    (MI)
HARRISON CRIB    0640            62  220/ 21/ 23   N/A
BURNHAM HARBOR   0700            61  210/  8/ 12   N/A
CALUMET HARBOR   0648                200/  8/ 12 1011.0F
BURNS HARBOR     0640            61  220/ 12/ 18 1012.2F
MICHIGAN CITY    0640            61  190/ 16/ 20   N/A
$$

ABBREVIATIONS USED IN REMARKS
   TC - TEMPERATURE IN CELSIUS
  WCI - WIND CHILL INDEX
   HX - HEAT INDEX
  VSB - VISIBILITY
$$



USA.gov is the U.S. government's official web portal to all federal, state and local government web resources and services.